Location: Austin
(30.3000°N, 97.7500°W)
Time: 10:17:48
(UTC-05:00)

ARIANE 6 FM1 Upper Stage - Visible Passes

Search period start: 11 April 2026 00:00
Search period end: 21 April 2026 00:00
Orbit: 524 x 604 km, 62.0° (Epoch: 11 April)

Date Brightness Start Highest point End Pass type
(mag) Time Alt. Az. Time Alt. Az. Time Alt. Az.
11 Apr 2.7 05:42:49 10° NNW 05:46:47 74° ENE 05:50:46 10° SE visible
11 Apr 5.8 21:17:15 10° W 21:19:37 15° NW 21:21:58 10° NNW visible
12 Apr 2.4 05:42:26 10° NW 05:46:22 66° WSW 05:50:19 10° SSE visible
13 Apr 2.9 05:46:07 39° SW 05:46:07 39° SW 05:49:40 10° S visible
